Powrót do katalogu

GEESAT 6-05

AktywnyŁącznośćLEO
NORAD 65717·PAYLOAD·🇨🇳 China

Wystrzelony Sep 24, 2025 z Yellow Sea Launch Area

Loading…

Następne Przeloty (najbliższe 24 godziny)

TLE

ŚwieżeSource: Space-Track

Epoka: Sep 14, 2026, 08:48 UTC

1 65717U 25214F   26257.36705521  .00001048  00000-0  15303-3 0  9999
2 65717  49.9789 254.9933 0012546 196.9412 163.1109 14.83605453 52747

Śledź GEESAT 6-05 w czasie rzeczywistym z AllMySat

Download on the App Store